Location: Bégole
(43.1574°N, 0.3291°E)
Time: 13:38:12
(UTC+00:00)

USA 215 - Pass Details

Date: 28 January 2023
Orbit: 1100 x 1107 km, 123.0° (Epoch: 18 March)

Event Time Altitude Azimuth Distance (km) Brightness Sun altitude
Rises 17:21:33 0° 137° (SE) 3,909 5.9 -3.6°
Reaches altitude 10° 17:24:03 10° 140° (SE) 2,953 5.3 -4.0°
Maximum altitude 17:30:33 71° 224° (SW) 1,162 3.7 -5.1°
Drops below altitude 10° 17:37:05 10° 308° (NW) 2,962 6.0 -6.2°
Sets 17:39:35 0° 310° (NW) 3,922 6.6 -6.7°
